Location: Taliouine
(32.4513°N, 5.6295°W)
Time: 14:29:17
(UTC+00:00)

Daily predictions for brighter satellites

Satellite Brightness Start Highest point End
(mag) Time Altitude Azimuth Time Altitude Azimuth Time Altitude Azimuth
S3M 4.1 18:55:03 10° S 19:01:15 59° E 19:07:31 10° NNE
Meteor 2-14 Rocket 4.5 18:55:50 10° N 19:01:52 65° E 19:07:52 10° SSE
Cosmos 371 Rocket 3.5 19:00:01 10° N 19:04:45 53° ENE 19:09:28 10° SSE
Cosmos 1805 3.2 19:02:01 10° S 19:05:54 71° E 19:09:47 10° N
Delta 2 Rocket 3.7 19:07:56 10° WNW 19:12:21 75° NNE 19:17:19 10° E
BREEZE-M DEB (TANK) 4.3 19:01:44 10° NW 19:12:22 35° NNE 19:15:39 10° E
Cosmos 1892 Rocket 4.1 19:08:11 10° N 19:12:23 39° E 19:16:33 10° SSE
ARGOS 4.4 19:08:49 10° ESE 19:12:44 21° ENE 19:16:38 10° NNE
Meteor 2-21 4.5 19:07:13 10° N 19:13:17 90° W 19:19:22 10° S
Cosmos 2278 Rocket 2.2 19:10:06 10° NNW 19:15:48 79° ENE 19:21:28 10° SSE
Meteor 2-21 Rocket 4.4 19:10:44 10° N 19:16:47 73° E 19:22:50 10° SSE
Meteor 2-5 Rocket 3.8 19:11:23 10° N 19:16:53 54° E 19:22:16 10° SSE
Cosmos 494 Rocket 4.2 19:12:35 10° SSW 19:17:42 79° WNW 19:22:53 10° NNE
OAO 3 Rocket 4.1 19:15:04 10° W 19:19:41 43° SSW 19:24:13 10° SE
USA 186 3.6 19:17:54 11° ESE 19:19:58 17° ENE 19:22:13 10° NNE
Okean 1-7 Rocket 3.9 19:20:12 10° N 19:24:25 45° E 19:28:36 10° SSE
CZ-2C R/B 3.9 19:20:45 10° SE 19:25:01 27° ENE 19:29:08 10° NNE
Cosmos 1544 Rocket 3.7 19:21:02 10° SSE 19:25:14 49° E 19:29:29 10° NNE
Cosmos 1470 3.6 19:24:08 10° SSE 19:27:24 27° E 19:30:43 10° NNE
Meteor 1-24 Rocket 3.8 19:22:50 10° N 19:28:05 48° ENE 19:33:12 10° SSE
Cosmos 1271 Rocket 4.4 19:27:06 10° NNW 19:30:33 36° W 19:33:58 10° SSW
CZ-4 R/B 3.3 19:27:35 10° SSW 19:31:06 32° W 19:34:35 10° NNW
Cosmos 1452 Rocket 4.4 19:26:07 10° NNW 19:31:14 53° WSW 19:36:20 10° S
Cosmos 332 Rocket 3.8 19:27:47 10° NNW 19:32:43 79° ENE 19:37:36 10° SSE
Cosmos 1331 Rocket 4.3 19:28:19 10° N 19:33:15 46° ENE 19:38:11 10° SE
GOES 2 Rocket 3.6 19:29:30 10° W 19:33:33 47° S 19:36:55 17° ESE
USA 81 4.0 19:31:28 10° N 19:36:45 76° E 19:41:59 10° S
SJ-6B 4.0 19:36:17 18° ESE 19:38:00 24° ENE 19:41:20 10° NNE
Cosmos 1733 3.5 19:34:30 10° SSW 19:38:14 67° W 19:41:59 10° N
Ariane Rocket 3.1 19:35:53 10° SSE 19:40:50 56° ENE 19:45:47 10° N
NOSS 3-1 (A) 4.5 19:33:02 10° NW 19:41:04 75° WSW 19:49:56 10° SSE
Cosmos 1758 3.8 19:37:30 10° SSE 19:41:18 39° E 19:45:07 10° NNE
SJ-11-01 4.2 19:37:01 10° SSE 19:41:39 66° ENE 19:46:19 10° N
Cosmos 1745 Rocket 4.0 19:36:16 10° N 19:42:34 89° W 19:48:46 10° S
H-2A R/B 3.0 19:25:39 10° W 19:43:21 55° SSW 19:45:58 20° SE
NOSS 3-3 (A) 4.3 19:38:23 10° S 19:43:24 34° ESE 19:48:48 10° NE
NOSS 3-3 (C) 4.3 19:38:31 10° S 19:43:31 34° ESE 19:48:53 10° NE
ARGOS Delta rocket 4.0 19:40:26 10° SSE 19:45:21 67° ENE 19:50:35 10° N
Cosmos 1674 3.8 19:45:35 10° NNW 19:49:09 44° W 19:52:41 10° SSW
IRS-1A Rocket 4.3 19:43:51 10° SSE 19:49:22 65° ENE 19:55:02 10° N
CZ-2C R/B 4.0 19:49:12 10° NNE 19:53:45 46° E 19:58:11 10° S
Cosmos 1110 Rocket 3.9 19:49:57 10° NNW 19:55:12 88° ENE 20:00:23 10° SSE
SL-14 R/B 3.2 19:57:00 10° N 20:01:02 72° E 20:03:39 20° SSE
Cosmos 1943 Rocket 3.5 20:00:11 10° NNE 20:04:18 21° ENE 20:04:35 21° ENE
STARLINK-1066 3.9 20:04:23 10° NNW 20:06:59 33° NNE 20:06:59 33° NNE
STARLINK-1081 3.9 20:04:51 10° NNW 20:07:22 32° NNE 20:07:22 32° NNE
STARLINK-1070 3.9 20:05:18 10° NNW 20:07:48 33° NNE 20:07:48 33° NNE
STARLINK-1069 3.9 20:05:43 10° NNW 20:08:16 33° NNE 20:08:16 33° NNE
Cosmos 2315 Rocket 4.1 20:02:44 10° S 20:09:01 82° W 20:15:23 10° N
STARLINK-1085 3.9 20:06:10 10° NNW 20:08:43 34° NNE 20:08:43 34° NNE
STARLINK-1086 3.9 20:06:39 10° NNW 20:09:06 33° NNE 20:09:06 33° NNE
STARLINK-1095 3.9 20:07:06 10° NNW 20:09:33 34° NNE 20:09:33 34° NNE
STARLINK-1077 3.9 20:07:31 10° NNW 20:09:58 34° NNE 20:09:58 34° NNE
STARLINK-1075 3.9 20:07:58 10° NNW 20:10:24 34° NNE 20:10:24 34° NNE
H-2A R/B 2.1 20:05:57 10° SSE 20:11:19 86° WSW 20:16:35 10° NNW
STARLINK-1093 3.9 20:08:23 10° NNW 20:10:52 35° NNE 20:10:52 35° NNE
STARLINK-1074 3.9 20:08:50 10° NNW 20:11:19 35° NNE 20:11:19 35° NNE
CZ-3 Stage 3 4.1 20:05:27 10° WSW 20:12:02 73° SSE 20:55:51 10° E
STARLINK-1087 3.9 20:09:18 10° NNW 20:11:42 34° NNE 20:11:42 34° NNE
Cosmos 1626 2.1 20:08:52 10° N 20:12:34 81° W 20:14:14 31° S
STARLINK-1088 3.9 20:09:46 10° NNW 20:12:08 35° NNE 20:12:08 35° NNE
Aureole 3 3.2 20:12:25 50° SE 20:13:09 62° E 20:17:37 10° NNE
STARLINK-1115 3.9 20:10:11 10° NNW 20:12:37 36° NNE 20:12:37 36° NNE
FREGAT/IRIS 2.8 20:13:25 59° WNW 20:13:25 59° WNW 20:15:56 10° NNW
SL-08 RB Rocket 3.7 20:12:30 43° SE 20:13:37 56° ENE 20:18:04 10° N
STARLINK-1076 3.9 20:10:37 10° NNW 20:13:03 36° NNE 20:13:03 36° NNE
STARLINK-1092 3.9 20:11:04 10° NNW 20:13:29 36° NNE 20:13:29 36° NNE
Meteor 2-15 Rocket 4.3 20:08:05 10° S 20:14:08 78° E 20:20:12 10° N
STARLINK-1080 4.0 20:11:33 10° NNW 20:13:52 35° N 20:13:52 35° N
Resurs 01 Rocket 3.3 20:16:28 19° NE 20:16:28 19° NE 20:18:21 10° NNE
STARLINK-1090 4.0 20:12:00 10° NNW 20:14:18 35° N 20:14:18 35° N
STARLINK-1089 4.0 20:12:26 10° NNW 20:14:44 35° N 20:14:44 35° N
ATLAS 3B CENTAUR R/B 3.7 20:12:42 10° WSW 20:15:43 14° SW 20:17:38 11° S
STARLINK-1107 4.0 20:12:54 10° NNW 20:15:11 35° N 20:15:11 35° N
SL-16 R/B 3.7 20:11:00 10° SW 20:16:13 38° WNW 20:21:29 10° N
Cosmos 967 Rocket 4.5 20:12:14 10° S 20:18:28 58° ESE 20:24:47 10° NE
USA 234 4.0 20:14:05 10° NNE 20:20:22 51° NW 20:26:38 10° WSW
OAO 2 Rocket 4.2 20:16:50 10° W 20:21:34 38° SSW 20:23:00 31° S
Cosmos 1953 2.6 20:23:08 50° NE 20:23:08 50° NE 20:26:14 10° NNE
STARLINK-1096 4.5 20:19:09 10° NNW 20:22:34 35° NNE 20:22:34 35° NNE
DMSP B5D2-2 3.9 20:18:10 10° NNE 20:23:22 67° ESE 20:28:33 10° S
STARLINK-1079 4.4 20:24:15 10° NNW 20:27:32 38° NNE 20:27:32 38° NNE
Delta 128 4.4 20:23:47 10° WSW 20:28:47 48° S 20:29:21 47° SSE
STARLINK-1116 4.4 20:28:35 10° NNW 20:31:45 39° NNE 20:31:45 39° NNE
Cosmos 1302 Rocket 3.9 20:27:18 10° NNW 20:32:36 88° ENE 20:33:57 52° SSE
Cosmos 1603 3.5 20:32:17 10° SSW 20:37:56 81° ESE 20:43:35 10° NNE
Cosmos 2251 Rocket 3.6 20:33:35 10° SSW 20:38:55 77° WNW 20:44:18 10° NNE
Meteor 1-16 Rocket 4.2 20:40:19 57° NE 20:40:19 57° NE 20:44:54 10° NNE
Cosmos 2297 4.1 20:43:16 10° NNW 20:48:51 58° WSW 20:50:43 39° SSW
SEDSat Delta rocket 3.9 20:45:02 10° WSW 20:48:04 40° WSW 20:48:04 40° WSW
USA 186 4.4 20:49:43 17° WSW 20:50:45 19° W 20:53:17 10° NW
ARGOS 4.3 20:48:38 16° SSW 20:52:38 41° W 20:57:43 10° NNW
Cosmos 2074 Rocket 3.9 20:46:50 10° N 20:53:01 69° ENE 20:53:01 69° ENE
CZ-2C R/B 2.7 20:49:02 10° N 20:54:11 73° WNW 20:55:39 47° SW
MetOp-A 4.4 21:02:46 61° WSW 21:03:08 63° WSW 21:08:27 10° NNW
MOS 1 Rocket 4.3 21:01:13 10° N 21:06:23 54° WNW 21:09:06 28° SW
SPOT 3 Rocket 4.4 21:10:27 44° WSW 21:10:57 46° W 21:15:57 10° NNW
Cosmos 2369 Rocket 3.2 21:21:30 10° NNW 21:25:03 40° NNW 21:25:03 40° NNW
ATLAS 2A CENTAUR R/B 4.5 20:34:19 10° WSW 21:43:58 73° S 21:47:02 63° SE
Cosmos 1943 Rocket 3.7 21:42:56 10° NW 21:46:08 31° WNW 21:46:08 31° WNW
ATLAS 2AS CENTAUR R/B 4.2 21:57:44 10° NNW 22:01:48 29° N 22:01:48 29° N
ATLAS 5 CENTAUR R/B 4.1 21:58:52 10° WSW 22:39:11 20° ESE 22:59:30 10° E
